Weather Roundup
Issued by NWS Springfield, MO

Home | Current Version | Previous Version | Text Only | Print | Product List | Glossary On
Versions: 1 2 3 4 5 6 7 8 9 10 11 12 13 14 15 16 17 18 19 20 21 22 23 24 25 26 27 28 29 30 31 32 33 34 35 36 37 38 39 40 41 42 43 44 45 46 47 48 49 50
299
NZUS99 KSGF 290707
HRRSGF

HOURLY WEATHER
NATIONAL WEATHER SERVICE SPRINGFIELD MO
200 AM CDT MON AUG 29 2016

......SGF CWA......

CITY           SKY/WX    TMP DP  RH WIND       PRES   REMARKS
SPRINGFIELD    CLEAR     74  68  81 SE6       30.13F
JOPLIN         PTCLDY    74  70  87 SE6       30.12S
WEST PLAINS    CLEAR     72  69  90 NE3       30.16F
ROLLA          CLEAR     73  71  93 SE6       30.14F
OSAGE BEACH    CLEAR     73  71  93 CALM      30.14F
BRANSON        CLEAR     72  70  94 CALM      30.15S

......SURROUNDING SGF CWA......

CITY           SKY/WX    TMP DP  RH WIND       PRES   REMARKS
CHANUTE        CLEAR     73  70  90 E6        30.11F
PARSONS        CLEAR     71  69  93 CALM      30.11F
COFFEYVILLE    CLEAR     71  68  90 NE3       30.10S
EMPORIA        CLEAR     72  69  90 SE8       30.11F
GROVE OK       CLEAR     72  72 100 CALM      30.11F
ROGERS AR      PTCLDY    74  71  91 E6        30.13F
SILOAM SPRINGS CLOUDY    73  64  73 E3          N/A
HARRISON AR    CLEAR     72  70  93 CALM      30.14F
NEAR YELLVILLE CLEAR     72  66  83 CALM      30.09F

......KANSAS AND MISSOURI......

CITY           SKY/WX    TMP DP  RH WIND       PRES   REMARKS
KANSAS CTY INT MOCLDY    72  67  84 E6        30.12S
DOWNTOWN KC    CLEAR     73  70  90 NE5       30.10F
COLUMBIA       CLEAR     74  72  93 E6        30.14F
SEDALIA        CLEAR     72  69  90 E3        30.14F
ST JOSEPH      PTCLDY    70  68  93 CALM      30.12R
ST LOUIS       CLEAR     80  73  79 E3        30.14F
SPIRIT OF STL  CLEAR     75  73  93 CALM      30.13S
KIRKSVILLE     PTCLDY    73  70  90 E6        30.16F
WICHITA        MOCLDY    74  70  87 W8        30.11R
TOPEKA         PTCLDY    73  69  87 CALM      30.10F
OLATHE         CLEAR     72  69  90 E6        30.12F

......TENNESSEE......

CITY           SKY/WX    TMP DP  RH WIND       PRES   REMARKS
MEMPHIS        PTCLDY    83  71  67 E6        30.06F
NASHVILLE      CLEAR     74  68  81 E3        30.12F

......ARKANSAS.......

CITY           SKY/WX    TMP DP  RH WIND       PRES   REMARKS
FAYETTEVILLE   PTCLDY    69  69 100 CALM      30.12F
FT SMITH       CLOUDY    76  72  87 E3        30.06F
LITTLE ROCK    PTCLDY    80  74  81 N5        30.05F

......OKLAHOMA.......

CITY           SKY/WX    TMP DP  RH WIND       PRES   REMARKS
TULSA          PTCLDY    77  70  79 CALM      30.07F
PONCA CITY     CLEAR     73  69  87 CALM      30.08F
MCALESTER      CLOUDY    75  69  81 CALM      30.08S
OKLAHOMA CITY  PTCLDY    71  67  87 SE7       30.08F

......IOWA............

CITY           SKY/WX    TMP DP  RH WIND       PRES   REMARKS
DES MOINES     CLOUDY    73  69  87 S5        30.14F THUNDER
QUAD CITIES    CLOUDY    72  68  87 CALM      30.18F

......ILLINOIS........

CITY           SKY/WX    TMP DP  RH WIND       PRES   REMARKS
QUINCY         CLEAR     72  72 100 SE6       30.15F
CHICAGO        PTCLDY    72  68  87 E3        30.21F




USA.gov is the U.S. government's official web portal to all federal, state and local government web resources and services.